NFC9346 GVAC-SBFZ

Flight info

Callsign NFC9346
Flight time 3h 43m
Altitude 32000
Route LISOS1A MELUT/N0499F330 UW46 KEPAS UN741 NANIK/N0497F340 UN741 DEVUN DCT FLZ DCT
Aircraft B77L/H-SDE1E2E3FGHIJ2J3J4J5M1RWXY/LB1D1

Departure

Time 2026-05-05 17:29
Airport Amílcar Cabral International Airport (GVAC)

Arrival

Time 2026-05-05 21:13
Airport Pinto Martins International Airport (SBFZ)
Time Latitude Longitude Altitude Speed Heading
2026-05-05 17:06 16.73561 -22.94508 210 ft 0 kts 90°
2026-05-05 17:25 16.73557 -22.94503 205 ft 2 kts 121°
2026-05-05 17:25 16.73538 -22.94513 209 ft 3 kts 251°
2026-05-05 17:25 16.73546 -22.94557 210 ft 10 kts 280°
2026-05-05 17:26 16.73594 -22.94629 215 ft 15 kts 300°
2026-05-05 17:26 16.73552 -22.94690 208 ft 15 kts 190°
2026-05-05 17:26 16.73430 -22.94693 209 ft 20 kts 178°
2026-05-05 17:26 16.73286 -22.94691 206 ft 21 kts 180°
2026-05-05 17:27 16.73147 -22.94691 209 ft 19 kts 180°
2026-05-05 17:27 16.73014 -22.94691 204 ft 19 kts 180°
2026-05-05 17:27 16.72862 -22.94690 207 ft 24 kts 180°
2026-05-05 17:27 16.72721 -22.94689 204 ft 20 kts 180°
2026-05-05 17:28 16.72585 -22.94689 194 ft 20 kts 180°
2026-05-05 17:28 16.72447 -22.94690 196 ft 20 kts 182°
2026-05-05 17:28 16.72404 -22.94780 195 ft 15 kts 271°
2026-05-05 17:28 16.72439 -22.94877 202 ft 16 kts 335°
2026-05-05 17:29 16.72600 -22.94888 191 ft 44 kts 359°
2026-05-05 17:29 16.73151 -22.94890 205 ft 123 kts 360°
2026-05-05 17:29 16.74317 -22.94905 301 ft 201 kts
2026-05-05 17:29 16.75749 -22.94922 1364 ft 201 kts 359°
2026-05-05 17:30 16.77177 -22.94948 2433 ft 212 kts 359°
2026-05-05 17:30 16.78747 -22.94982 2997 ft 240 kts 358°
2026-05-05 17:30 16.80422 -22.95090 3825 ft 251 kts 358°
2026-05-05 17:30 16.82227 -22.95136 4549 ft 267 kts 359°
2026-05-05 17:31 16.84109 -22.95252 5133 ft 276 kts 345°
2026-05-05 17:31 16.85776 -22.96181 5853 ft 279 kts 314°
2026-05-05 17:31 16.86815 -22.97872 6685 ft 280 kts 287°
2026-05-05 17:31 16.87115 -22.99867 7445 ft 280 kts 269°
2026-05-05 17:32 16.87101 -23.01926 8136 ft 287 kts 268°
2026-05-05 17:32 16.87068 -23.04014 9027 ft 287 kts 267°
2026-05-05 17:32 16.87035 -23.06100 9912 ft 288 kts 267°
2026-05-05 17:32 16.87009 -23.08219 10546 ft 298 kts 267°
2026-05-05 17:33 16.86985 -23.10471 10781 ft 323 kts 268°
2026-05-05 17:33 16.86965 -23.12744 10963 ft 347 kts 268°
2026-05-05 17:33 16.86900 -23.15417 11205 ft 370 kts 264°
2026-05-05 17:33 16.86667 -23.18121 11805 ft 379 kts 262°
2026-05-05 17:34 16.86364 -23.20880 12531 ft 385 kts 262°
2026-05-05 17:34 16.86048 -23.23665 13366 ft 387 kts 262°
2026-05-05 17:34 16.85737 -23.26469 14159 ft 390 kts 262°
2026-05-05 17:34 16.85433 -23.29292 14903 ft 393 kts 262°
2026-05-05 17:35 16.85136 -23.32131 15643 ft 395 kts 262°
2026-05-05 17:35 16.84940 -23.34022 16125 ft 397 kts 262°
2026-05-05 17:35 16.84546 -23.37875 17076 ft 401 kts 263°
2026-05-05 17:35 16.84254 -23.40740 17762 ft 404 kts 263°
2026-05-05 17:36 16.84058 -23.42661 18214 ft 406 kts 263°
2026-05-05 17:36 16.83660 -23.46561 18991 ft 410 kts 263°
2026-05-05 17:36 16.83356 -23.49531 19574 ft 413 kts 263°
2026-05-05 17:36 16.83049 -23.52525 20152 ft 416 kts 263°
2026-05-05 17:37 16.82741 -23.55534 20728 ft 418 kts 263°
2026-05-05 17:37 16.82535 -23.57533 21104 ft 420 kts 263°
2026-05-05 17:37 16.82115 -23.61612 21859 ft 424 kts 263°
2026-05-05 17:37 16.81791 -23.64682 22397 ft 427 kts 262°
2026-05-05 17:38 16.81468 -23.66707 22751 ft 429 kts 258°
2026-05-05 17:38 16.80525 -23.70689 23425 ft 433 kts 254°
2026-05-05 17:38 16.79694 -23.73721 23901 ft 435 kts 254°
2026-05-05 17:38 16.78845 -23.76753 24390 ft 436 kts 254°
2026-05-05 17:39 16.78007 -23.79795 24910 ft 436 kts 254°
2026-05-05 17:39 16.77461 -23.81814 25262 ft 436 kts 255°
2026-05-05 17:39 16.76652 -23.84866 25763 ft 437 kts 255°
2026-05-05 17:39 16.75852 -23.87933 26246 ft 439 kts 255°
2026-05-05 17:40 16.75059 -23.91010 26720 ft 440 kts 255°
2026-05-05 17:40 16.74006 -23.95115 27352 ft 442 kts 255°
2026-05-05 17:40 16.73223 -23.98178 27820 ft 443 kts 255°
2026-05-05 17:40 16.72426 -24.01288 28273 ft 444 kts 255°
2026-05-05 17:41 16.71888 -24.03390 28574 ft 445 kts 255°
2026-05-05 17:41 16.71096 -24.06479 28996 ft 447 kts 255°
2026-05-05 17:41 16.70018 -24.10673 29542 ft 449 kts 255°
2026-05-05 17:41 16.69481 -24.12761 29806 ft 450 kts 255°
2026-05-05 17:42 16.68670 -24.15913 30186 ft 450 kts 255°
2026-05-05 17:42 16.67860 -24.19058 30651 ft 447 kts 255°
2026-05-05 17:42 16.67059 -24.22168 31215 ft 442 kts 254°
2026-05-05 17:42 16.66008 -24.26243 31929 ft 437 kts 254°
2026-05-05 17:43 16.65474 -24.28313 32024 ft 440 kts 254°
2026-05-05 17:43 16.63886 -24.34461 31997 ft 441 kts 254°
2026-05-05 17:44 16.62300 -24.40593 32004 ft 437 kts 254°
2026-05-05 17:44 16.60717 -24.46703 32029 ft 438 kts 254°
2026-05-05 17:44 16.59921 -24.49776 32238 ft 440 kts 253°
2026-05-05 17:45 16.58872 -24.53822 32855 ft 435 kts 253°
2026-05-05 17:45 16.58339 -24.55877 33226 ft 431 kts 253°
2026-05-05 17:45 16.57562 -24.58873 33776 ft 426 kts 253°
2026-05-05 17:45 16.56805 -24.61786 34015 ft 427 kts 252°
2026-05-05 17:46 16.56018 -24.64812 34003 ft 428 kts 252°
2026-05-05 17:46 16.54476 -24.70737 33995 ft 425 kts 253°
2026-05-05 17:47 16.52947 -24.76601 34004 ft 424 kts 253°
2026-05-05 17:47 16.51493 -24.82173 34005 ft 424 kts 253°
2026-05-05 17:48 16.49978 -24.87976 34006 ft 424 kts 253°
2026-05-05 17:48 16.48418 -24.93939 34009 ft 424 kts 253°
2026-05-05 17:49 16.46860 -24.99888 34005 ft 424 kts 253°
2026-05-05 17:49 16.45333 -25.05714 34015 ft 424 kts 253°
2026-05-05 17:50 16.43774 -25.11650 34006 ft 423 kts 253°
2026-05-05 17:50 16.42238 -25.17497 34008 ft 422 kts 253°
2026-05-05 17:51 16.40702 -25.23333 34006 ft 421 kts 253°
2026-05-05 17:51 16.39659 -25.27293 34007 ft 421 kts 253°
2026-05-05 17:52 16.38384 -25.32128 34008 ft 420 kts 253°
2026-05-05 17:52 16.37103 -25.36986 34008 ft 420 kts 253°
2026-05-05 17:53 16.35869 -25.41655 34005 ft 420 kts 253°
2026-05-05 17:53 16.34428 -25.47106 34005 ft 420 kts 253°
2026-05-05 17:54 16.32941 -25.52722 34006 ft 420 kts 253°
2026-05-05 17:54 16.31397 -25.58547 34005 ft 420 kts 253°
2026-05-05 17:55 16.29930 -25.64076 34007 ft 420 kts 253°
2026-05-05 17:55 16.28431 -25.69720 34011 ft 420 kts 253°
2026-05-05 17:56 16.27275 -25.74067 34005 ft 420 kts 253°
2026-05-05 17:56 16.25809 -25.79574 34008 ft 419 kts 253°
2026-05-05 17:57 16.24452 -25.84664 34009 ft 419 kts 253°
2026-05-05 17:57 16.23313 -25.88937 34009 ft 418 kts 253°
2026-05-05 17:58 16.22020 -25.93781 34007 ft 418 kts 253°
2026-05-05 17:58 16.20740 -25.98570 34003 ft 418 kts 253°
2026-05-05 17:59 16.19286 -26.04004 34009 ft 418 kts 253°
2026-05-05 17:59 16.17878 -26.09264 34008 ft 418 kts 253°
2026-05-05 18:00 16.16387 -26.14828 34010 ft 419 kts 253°
2026-05-05 18:00 16.14807 -26.20717 34010 ft 419 kts 253°
2026-05-05 18:01 16.12977 -26.26186 34043 ft 418 kts 247°
2026-05-05 18:01 16.10353 -26.31594 34014 ft 420 kts 240°
2026-05-05 18:02 16.07291 -26.36760 34015 ft 420 kts 240°
2026-05-05 18:02 16.04382 -26.41628 34016 ft 420 kts 240°
2026-05-05 18:03 16.01459 -26.46536 34014 ft 421 kts 240°
2026-05-05 18:03 15.98443 -26.51616 34018 ft 421 kts 240°
2026-05-05 18:04 15.95443 -26.56675 33994 ft 421 kts 240°
2026-05-05 18:04 15.92362 -26.61867 34006 ft 420 kts 240°
2026-05-05 18:05 15.89294 -26.67034 34020 ft 421 kts 240°
2026-05-05 18:05 15.86255 -26.72146 34021 ft 421 kts 240°
2026-05-05 18:06 15.83196 -26.77291 34014 ft 421 kts 240°
2026-05-05 18:06 15.80143 -26.82420 34009 ft 421 kts 239°
2026-05-05 18:07 15.77063 -26.87592 34023 ft 421 kts 240°
2026-05-05 18:07 15.73976 -26.92770 34016 ft 421 kts 240°
2026-05-05 18:08 15.70922 -26.97891 34009 ft 421 kts 240°
2026-05-05 18:08 15.68214 -27.02429 34021 ft 420 kts 240°
2026-05-05 18:09 15.65431 -27.07089 34019 ft 420 kts 240°
2026-05-05 18:09 15.62451 -27.12077 34012 ft 420 kts 240°
2026-05-05 18:10 15.59377 -27.17217 34016 ft 420 kts 240°
2026-05-05 18:10 15.56359 -27.22262 33988 ft 420 kts 239°
2026-05-05 18:11 15.53306 -27.27361 34017 ft 421 kts 239°
2026-05-05 18:11 15.50213 -27.32523 34018 ft 422 kts 239°
2026-05-05 18:12 15.47228 -27.37502 34020 ft 424 kts 239°
2026-05-05 18:12 15.44127 -27.42671 34017 ft 425 kts 239°
2026-05-05 18:13 15.40982 -27.47909 34019 ft 426 kts 239°
2026-05-05 18:13 15.37884 -27.53066 34016 ft 426 kts 239°
2026-05-05 18:14 15.35004 -27.57856 34016 ft 426 kts 239°
2026-05-05 18:14 15.31928 -27.62968 34016 ft 426 kts 239°
2026-05-05 18:15 15.28790 -27.68180 34015 ft 426 kts 239°
2026-05-05 18:15 15.25655 -27.73384 34015 ft 426 kts 239°
2026-05-05 18:16 15.22532 -27.78565 34013 ft 425 kts 239°
2026-05-05 18:16 15.19398 -27.83761 34016 ft 425 kts 239°
2026-05-05 18:17 15.16311 -27.88875 33990 ft 425 kts 239°
2026-05-05 18:17 15.13230 -27.93977 34042 ft 424 kts 239°
2026-05-05 18:18 15.10061 -27.99220 34024 ft 425 kts 239°
2026-05-05 18:18 15.06953 -28.04358 34019 ft 426 kts 239°
2026-05-05 18:19 15.03894 -28.09412 34023 ft 427 kts 239°
2026-05-05 18:19 15.00753 -28.14598 34017 ft 427 kts 239°
2026-05-05 18:20 14.97637 -28.19742 34017 ft 428 kts 239°
2026-05-05 18:20 14.94561 -28.24814 34016 ft 428 kts 239°
2026-05-05 18:21 14.91841 -28.29296 34020 ft 428 kts 239°
2026-05-05 18:21 14.88663 -28.34532 34015 ft 428 kts 239°
2026-05-05 18:22 14.85496 -28.39745 34016 ft 428 kts 239°
2026-05-05 18:22 14.82329 -28.44616 34003 ft 430 kts 232°
2026-05-05 18:23 14.78198 -28.48727 34008 ft 434 kts 224°
2026-05-05 18:23 14.73101 -28.52250 34012 ft 439 kts 214°
2026-05-05 18:24 14.67714 -28.55300 34011 ft 440 kts 213°
2026-05-05 18:24 14.62378 -28.58308 34019 ft 440 kts 214°
2026-05-05 18:25 14.57013 -28.61367 34019 ft 440 kts 214°
2026-05-05 18:25 14.51657 -28.64439 34016 ft 440 kts 214°
2026-05-05 18:26 14.46337 -28.67496 34023 ft 441 kts 214°
2026-05-05 18:26 14.41094 -28.70506 33990 ft 441 kts 214°
2026-05-05 18:27 14.35874 -28.73502 34012 ft 443 kts 214°
2026-05-05 18:27 14.30815 -28.76403 34019 ft 445 kts 214°
2026-05-05 18:28 14.23649 -28.80509 34017 ft 447 kts 214°
2026-05-05 18:28 14.18631 -28.83383 34013 ft 448 kts 214°
2026-05-05 18:29 14.13234 -28.86471 34011 ft 448 kts 214°
2026-05-05 18:29 14.07744 -28.89611 33994 ft 448 kts 213°
2026-05-05 18:30 14.02362 -28.92688 34011 ft 448 kts 213°
2026-05-05 18:30 13.96869 -28.95827 34010 ft 449 kts 213°
2026-05-05 18:31 13.91835 -28.98702 34011 ft 449 kts 213°
2026-05-05 18:31 13.86378 -29.01816 34010 ft 449 kts 213°
2026-05-05 18:32 13.80866 -29.04961 34011 ft 449 kts 213°
2026-05-05 18:32 13.75402 -29.08076 34012 ft 449 kts 213°
2026-05-05 18:33 13.69934 -29.11193 34015 ft 449 kts 213°
2026-05-05 18:33 13.64469 -29.14305 34017 ft 449 kts 213°
2026-05-05 18:34 13.59032 -29.17400 34016 ft 449 kts 213°
2026-05-05 18:34 13.53569 -29.20509 34003 ft 449 kts 213°
2026-05-05 18:35 13.48097 -29.23620 34016 ft 449 kts 213°
2026-05-05 18:35 13.42625 -29.26731 34014 ft 449 kts 213°
2026-05-05 18:36 13.37153 -29.29839 34005 ft 450 kts 213°
2026-05-05 18:36 13.31711 -29.32929 34008 ft 450 kts 213°
2026-05-05 18:37 13.26224 -29.36043 34005 ft 451 kts 213°
2026-05-05 18:37 13.20733 -29.39157 34009 ft 451 kts 213°
2026-05-05 18:38 13.15242 -29.42270 34000 ft 451 kts 213°
2026-05-05 18:38 13.09739 -29.45388 34007 ft 452 kts 213°
2026-05-05 18:39 13.04276 -29.48481 33989 ft 452 kts 213°
2026-05-05 18:39 12.98771 -29.51597 34003 ft 452 kts 213°
2026-05-05 18:40 12.93255 -29.54718 34003 ft 453 kts 213°
2026-05-05 18:40 12.87735 -29.57839 34004 ft 454 kts 213°
2026-05-05 18:41 12.82205 -29.60965 34003 ft 454 kts 213°
2026-05-05 18:41 12.76706 -29.64071 34009 ft 455 kts 213°
2026-05-05 18:42 12.71166 -29.67198 34006 ft 455 kts 213°
2026-05-05 18:42 12.65624 -29.70325 34002 ft 455 kts 213°
2026-05-05 18:43 12.60084 -29.73450 34005 ft 455 kts 213°
2026-05-05 18:43 12.54545 -29.76572 34006 ft 454 kts 213°
2026-05-05 18:44 12.49045 -29.79671 34002 ft 454 kts 213°
2026-05-05 18:44 12.43507 -29.82790 33999 ft 454 kts 213°
2026-05-05 18:45 12.37974 -29.85904 33994 ft 454 kts 213°
2026-05-05 18:45 12.32434 -29.89022 34003 ft 455 kts 213°
2026-05-05 18:46 12.26890 -29.92140 33999 ft 455 kts 213°
2026-05-05 18:46 12.21375 -29.95240 34002 ft 456 kts 213°
2026-05-05 18:47 12.15820 -29.98360 34005 ft 456 kts 213°
2026-05-05 18:47 12.10260 -30.01483 34005 ft 456 kts 213°
2026-05-05 18:48 12.04687 -30.04610 33990 ft 457 kts 213°
2026-05-05 18:48 11.99121 -30.07733 33997 ft 456 kts 213°
2026-05-05 18:49 11.93605 -30.10826 34000 ft 456 kts 213°
2026-05-05 18:49 11.88045 -30.13942 34000 ft 457 kts 213°
2026-05-05 18:50 11.82463 -30.17069 33999 ft 457 kts 213°
2026-05-05 18:50 11.76882 -30.20194 34000 ft 457 kts 213°
2026-05-05 18:51 11.71303 -30.23317 33995 ft 457 kts 212°
2026-05-05 18:51 11.65762 -30.26417 34001 ft 457 kts 212°
2026-05-05 18:52 11.60183 -30.29536 33996 ft 457 kts 212°
2026-05-05 18:52 11.54610 -30.32651 33995 ft 457 kts 212°
2026-05-05 18:53 11.49035 -30.35765 33995 ft 457 kts 212°
2026-05-05 18:53 11.43459 -30.38879 33994 ft 457 kts 212°
2026-05-05 18:54 11.37886 -30.41990 33990 ft 456 kts 212°
2026-05-05 18:54 11.32342 -30.45084 34141 ft 459 kts 211°
2026-05-05 18:55 11.29545 -30.46644 34490 ft 457 kts 211°
2026-05-05 18:55 11.26760 -30.48195 34891 ft 455 kts 211°
2026-05-05 18:55 11.23992 -30.49738 35257 ft 452 kts 211°
2026-05-05 18:55 11.21245 -30.51268 35617 ft 450 kts 211°
2026-05-05 18:56 11.18494 -30.52801 35901 ft 450 kts 211°
2026-05-05 18:56 11.15739 -30.54337 35929 ft 452 kts 211°
2026-05-05 18:56 11.10255 -30.57392 35981 ft 451 kts 211°
2026-05-05 18:57 11.04761 -30.60450 35989 ft 449 kts 211°
2026-05-05 18:57 10.99293 -30.63493 35993 ft 447 kts 211°
2026-05-05 18:58 10.93837 -30.66528 35997 ft 447 kts 211°
2026-05-05 18:58 10.88379 -30.69564 35995 ft 447 kts 211°
2026-05-05 18:59 10.82908 -30.72605 35995 ft 448 kts 211°
2026-05-05 18:59 10.77472 -30.75625 35996 ft 449 kts 211°
2026-05-05 19:00 10.71993 -30.78674 35998 ft 449 kts 211°
2026-05-05 19:00 10.66502 -30.81733 35995 ft 450 kts 211°
2026-05-05 19:01 10.61005 -30.84794 36000 ft 451 kts 211°
2026-05-05 19:01 10.55492 -30.87856 35997 ft 452 kts 211°
2026-05-05 19:02 10.50005 -30.90885 35996 ft 452 kts 211°
2026-05-05 19:02 10.44471 -30.93938 35995 ft 453 kts 211°
2026-05-05 19:03 10.38932 -30.96995 36001 ft 453 kts 211°
2026-05-05 19:03 10.33396 -31.00049 35987 ft 453 kts 211°
2026-05-05 19:04 10.27888 -31.03088 35996 ft 454 kts 211°
2026-05-05 19:04 10.22336 -31.06151 35992 ft 454 kts 211°
2026-05-05 19:05 10.16778 -31.09215 35997 ft 455 kts 211°
2026-05-05 19:05 10.11212 -31.12282 35994 ft 455 kts 211°
2026-05-05 19:06 10.05650 -31.15345 35996 ft 455 kts 211°
2026-05-05 19:06 10.00084 -31.18410 35987 ft 455 kts 211°
2026-05-05 19:07 9.94545 -31.21459 35996 ft 455 kts 211°
2026-05-05 19:07 9.88972 -31.24525 35995 ft 456 kts 211°
2026-05-05 19:08 9.83398 -31.27591 35994 ft 456 kts 211°
2026-05-05 19:08 9.77823 -31.30657 35992 ft 456 kts 211°
2026-05-05 19:09 9.72280 -31.33703 35991 ft 456 kts 211°
2026-05-05 19:09 9.66703 -31.36767 35984 ft 456 kts 211°
2026-05-05 19:10 9.61122 -31.39827 35992 ft 456 kts 211°
2026-05-05 19:10 9.55533 -31.42886 35992 ft 457 kts 211°
2026-05-05 19:11 9.49941 -31.45947 35995 ft 457 kts 211°
2026-05-05 19:11 9.44382 -31.48989 35994 ft 457 kts 211°
2026-05-05 19:12 9.38784 -31.52052 35995 ft 457 kts 211°
2026-05-05 19:12 9.33186 -31.55114 35994 ft 458 kts 211°
2026-05-05 19:13 9.27590 -31.58174 35992 ft 458 kts 211°
2026-05-05 19:13 9.21982 -31.61238 35992 ft 458 kts 211°
2026-05-05 19:14 9.16376 -31.64301 35991 ft 458 kts 211°
2026-05-05 19:14 9.10810 -31.67341 35989 ft 458 kts 211°
2026-05-05 19:15 9.05202 -31.70403 35992 ft 458 kts 211°
2026-05-05 19:15 8.99595 -31.73463 35982 ft 458 kts 211°
2026-05-05 19:16 8.93986 -31.76523 35993 ft 458 kts 211°
2026-05-05 19:16 8.88373 -31.79585 35992 ft 459 kts 211°
2026-05-05 19:17 8.82790 -31.82629 35992 ft 459 kts 211°
2026-05-05 19:17 8.77171 -31.85691 35992 ft 459 kts 211°
2026-05-05 19:18 8.71541 -31.88758 35989 ft 459 kts 211°
2026-05-05 19:18 8.65911 -31.91825 35985 ft 460 kts 211°
2026-05-05 19:19 8.60315 -31.94872 35988 ft 460 kts 211°
2026-05-05 19:19 8.54679 -31.97939 35986 ft 461 kts 211°
2026-05-05 19:20 8.49032 -32.01011 35986 ft 461 kts 211°
2026-05-05 19:20 8.43385 -32.04083 35986 ft 461 kts 211°
2026-05-05 19:21 8.37736 -32.07154 35986 ft 461 kts 211°
2026-05-05 19:21 8.32087 -32.10224 35981 ft 461 kts 211°
2026-05-05 19:22 8.26468 -32.13278 35992 ft 462 kts 211°
2026-05-05 19:22 8.20811 -32.16351 35982 ft 462 kts 211°
2026-05-05 19:23 8.15147 -32.19426 35985 ft 462 kts 211°
2026-05-05 19:23 8.09488 -32.22498 35987 ft 462 kts 211°
2026-05-05 19:24 8.03865 -32.25549 35982 ft 462 kts 211°
2026-05-05 19:24 7.98202 -32.28621 35979 ft 462 kts 211°
2026-05-05 19:25 7.92532 -32.31696 35988 ft 462 kts 211°
2026-05-05 19:25 7.86866 -32.34768 35986 ft 463 kts 211°
2026-05-05 19:26 7.81193 -32.37842 35984 ft 463 kts 211°
2026-05-05 19:26 7.75554 -32.40897 35985 ft 463 kts 211°
2026-05-05 19:27 7.69883 -32.43969 35983 ft 463 kts 211°
2026-05-05 19:27 7.64206 -32.47043 35981 ft 463 kts 211°
2026-05-05 19:28 7.58529 -32.50116 35983 ft 463 kts 211°
2026-05-05 19:28 7.52887 -32.53169 35981 ft 463 kts 211°
2026-05-05 19:29 7.47202 -32.56245 35984 ft 464 kts 211°
2026-05-05 19:29 7.41519 -32.59318 35984 ft 464 kts 211°
2026-05-05 19:30 7.35838 -32.62389 35983 ft 464 kts 211°
2026-05-05 19:30 7.30190 -32.65442 35984 ft 464 kts 210°
2026-05-05 19:31 7.24504 -32.68515 35981 ft 464 kts 210°
2026-05-05 19:31 7.18818 -32.71586 35981 ft 464 kts 210°
2026-05-05 19:32 7.13128 -32.74659 35981 ft 464 kts 210°
2026-05-05 19:32 7.07441 -32.77729 35981 ft 464 kts 210°
2026-05-05 19:33 7.01785 -32.80782 35973 ft 464 kts 210°
2026-05-05 19:33 6.96093 -32.83854 35975 ft 465 kts 210°
2026-05-05 19:34 6.90388 -32.86931 35979 ft 465 kts 210°
2026-05-05 19:35 6.81825 -32.91548 35980 ft 466 kts 210°
2026-05-05 19:35 6.76153 -32.94606 35982 ft 466 kts 210°
2026-05-05 19:36 6.70441 -32.97685 35981 ft 466 kts 210°
2026-05-05 19:36 6.64728 -33.00763 35980 ft 466 kts 210°
2026-05-05 19:37 6.59001 -33.03848 35980 ft 467 kts 210°
2026-05-05 19:37 6.54243 -33.06410 35981 ft 467 kts 210°
2026-05-05 19:38 6.47577 -33.09999 35980 ft 468 kts 210°
2026-05-05 19:38 6.42809 -33.12566 35977 ft 468 kts 210°
2026-05-05 19:39 6.36099 -33.16177 35977 ft 468 kts 210°
2026-05-05 19:39 6.31327 -33.18740 35974 ft 468 kts 209°
2026-05-05 19:40 6.25569 -33.21818 35979 ft 469 kts 209°
2026-05-05 19:40 6.18873 -33.25394 35979 ft 469 kts 209°
2026-05-05 19:41 6.13110 -33.28474 35980 ft 469 kts 209°
2026-05-05 19:41 6.08318 -33.31035 35978 ft 469 kts 209°
2026-05-05 19:42 6.02552 -33.34117 35975 ft 469 kts 209°
2026-05-05 19:42 5.96790 -33.37195 35975 ft 469 kts 209°
2026-05-05 19:43 5.91021 -33.40277 35974 ft 469 kts 209°
2026-05-05 19:43 5.85298 -33.43333 35977 ft 469 kts 210°
2026-05-05 19:44 5.79538 -33.46408 35975 ft 469 kts 210°
2026-05-05 19:44 5.73782 -33.49480 35975 ft 469 kts 210°
2026-05-05 19:45 5.68021 -33.52554 35975 ft 469 kts 209°
2026-05-05 19:45 5.62259 -33.55628 35974 ft 469 kts 209°
2026-05-05 19:46 5.56536 -33.58681 35979 ft 469 kts 209°
2026-05-05 19:46 5.50767 -33.61758 35979 ft 469 kts 209°
2026-05-05 19:47 5.44999 -33.64832 35975 ft 470 kts 209°
2026-05-05 19:47 5.39228 -33.67909 35975 ft 470 kts 209°
2026-05-05 19:48 5.33448 -33.70989 35972 ft 470 kts 209°
2026-05-05 19:48 5.27706 -33.74049 35976 ft 471 kts 209°
2026-05-05 19:49 5.21917 -33.77132 35974 ft 471 kts 209°
2026-05-05 19:49 5.16130 -33.80214 35970 ft 471 kts 209°
2026-05-05 19:50 5.10337 -33.83299 35974 ft 471 kts 209°
2026-05-05 19:50 5.04545 -33.86382 35970 ft 472 kts 209°
2026-05-05 19:51 4.98782 -33.89450 35976 ft 472 kts 209°
2026-05-05 19:51 4.92980 -33.92537 35972 ft 472 kts 209°
2026-05-05 19:52 4.87167 -33.95630 35976 ft 473 kts 209°
2026-05-05 19:52 4.81355 -33.98722 35975 ft 473 kts 209°
2026-05-05 19:53 4.75540 -34.01814 35971 ft 473 kts 209°
2026-05-05 19:53 4.69722 -34.04908 35971 ft 474 kts 208°
2026-05-05 19:54 4.63942 -34.07982 35974 ft 474 kts 208°
2026-05-05 19:54 4.58111 -34.11081 35974 ft 474 kts 208°
2026-05-05 19:55 4.52282 -34.14180 35973 ft 474 kts 208°
2026-05-05 19:55 4.46455 -34.17282 35973 ft 475 kts 208°
2026-05-05 19:56 4.40628 -34.20401 35978 ft 475 kts 208°
2026-05-05 19:56 4.34838 -34.23502 35974 ft 475 kts 208°
2026-05-05 19:57 4.29005 -34.26624 35972 ft 476 kts 208°
2026-05-05 19:57 4.23166 -34.29748 35973 ft 476 kts 208°
2026-05-05 19:58 4.17326 -34.32871 35976 ft 476 kts 208°
2026-05-05 19:58 4.11519 -34.35976 35975 ft 476 kts 208°
2026-05-05 19:59 4.05668 -34.39105 35971 ft 477 kts 207°
2026-05-05 19:59 3.99814 -34.42234 35977 ft 477 kts 207°
2026-05-05 20:00 3.93958 -34.45364 35973 ft 477 kts 207°
2026-05-05 20:00 3.88096 -34.48497 35980 ft 478 kts 207°
2026-05-05 20:01 3.82265 -34.51613 35976 ft 478 kts 207°
2026-05-05 20:01 3.76390 -34.54752 35978 ft 479 kts 207°
2026-05-05 20:02 3.70515 -34.57890 35975 ft 479 kts 207°
2026-05-05 20:02 3.64636 -34.61031 35976 ft 479 kts 207°
2026-05-05 20:03 3.58759 -34.64170 35975 ft 479 kts 207°
2026-05-05 20:03 3.52923 -34.67286 35975 ft 479 kts 207°
2026-05-05 20:04 3.47047 -34.70423 35977 ft 478 kts 207°
2026-05-05 20:04 3.41178 -34.73556 35982 ft 478 kts 207°
2026-05-05 20:05 3.35304 -34.76694 35977 ft 478 kts 207°
2026-05-05 20:05 3.29439 -34.79825 35978 ft 478 kts 207°
2026-05-05 20:06 3.23607 -34.82939 35978 ft 478 kts 207°
2026-05-05 20:06 3.17733 -34.86075 35974 ft 478 kts 207°
2026-05-05 20:07 3.11865 -34.89207 35977 ft 478 kts 207°
2026-05-05 20:07 3.05995 -34.92340 35976 ft 478 kts 207°
2026-05-05 20:08 3.00163 -34.95453 35979 ft 478 kts 207°
2026-05-05 20:08 2.94297 -34.98583 35978 ft 478 kts 207°
2026-05-05 20:09 2.88424 -35.01717 35974 ft 479 kts 207°
2026-05-05 20:09 2.82543 -35.04854 35980 ft 479 kts 207°
2026-05-05 20:10 2.76699 -35.07972 35979 ft 480 kts 207°
2026-05-05 20:10 2.70807 -35.11115 35977 ft 480 kts 207°
2026-05-05 20:11 2.64935 -35.14320 35978 ft 481 kts 208°
2026-05-05 20:11 2.59102 -35.17599 35974 ft 481 kts 208°
2026-05-05 20:12 2.53301 -35.20863 35977 ft 481 kts 208°
2026-05-05 20:12 2.47458 -35.24137 35970 ft 482 kts 208°
2026-05-05 20:13 2.41609 -35.27406 35974 ft 482 kts 208°
2026-05-05 20:13 2.35743 -35.30681 35977 ft 483 kts 208°
2026-05-05 20:14 2.29872 -35.33959 35977 ft 484 kts 208°
2026-05-05 20:14 2.23991 -35.37244 35976 ft 484 kts 208°
2026-05-05 20:15 2.18141 -35.40511 35980 ft 485 kts 208°
2026-05-05 20:15 2.12253 -35.43799 35977 ft 485 kts 208°
2026-05-05 20:16 2.06359 -35.47090 35978 ft 485 kts 208°
2026-05-05 20:16 2.00465 -35.50381 35977 ft 485 kts 208°
2026-05-05 20:17 1.94568 -35.53673 35978 ft 485 kts 208°
2026-05-05 20:17 1.88717 -35.56940 35978 ft 486 kts 208°
2026-05-05 20:18 1.82814 -35.60235 35974 ft 486 kts 208°
2026-05-05 20:18 1.76915 -35.63527 35975 ft 486 kts 208°
2026-05-05 20:19 1.71015 -35.66820 35975 ft 486 kts 208°
2026-05-05 20:19 1.65153 -35.70092 35974 ft 486 kts 208°
2026-05-05 20:20 1.59253 -35.73384 35974 ft 486 kts 208°
2026-05-05 20:20 1.53352 -35.76677 35972 ft 485 kts 208°
2026-05-05 20:21 1.47459 -35.79965 35976 ft 485 kts 208°
2026-05-05 20:21 1.41605 -35.83231 35975 ft 485 kts 208°
2026-05-05 20:22 1.35712 -35.86518 35975 ft 485 kts 208°
2026-05-05 20:22 1.29819 -35.89806 35975 ft 485 kts 208°
2026-05-05 20:23 1.23930 -35.93091 35976 ft 485 kts 208°
2026-05-05 20:23 1.18043 -35.96375 35972 ft 485 kts 208°
2026-05-05 20:24 1.12180 -35.99645 35976 ft 486 kts 208°
2026-05-05 20:24 1.06271 -36.02941 35976 ft 486 kts 208°
2026-05-05 20:25 1.00358 -36.06239 35977 ft 487 kts 208°
2026-05-05 20:25 0.94435 -36.09542 35976 ft 488 kts 208°
2026-05-05 20:26 0.88549 -36.12824 35975 ft 488 kts 208°
2026-05-05 20:26 0.82619 -36.16131 35973 ft 488 kts 208°
2026-05-05 20:27 0.76687 -36.19440 35977 ft 488 kts 208°
2026-05-05 20:27 0.70752 -36.22749 35974 ft 488 kts 208°
2026-05-05 20:28 0.64859 -36.26035 35979 ft 488 kts 208°
2026-05-05 20:28 0.58929 -36.29341 35974 ft 488 kts 208°
2026-05-05 20:29 0.53005 -36.32644 35971 ft 487 kts 208°
2026-05-05 20:29 0.47086 -36.35945 35973 ft 487 kts 208°
2026-05-05 20:30 0.41176 -36.39240 35970 ft 487 kts 208°
2026-05-05 20:30 0.35304 -36.42514 35973 ft 486 kts 208°
2026-05-05 20:31 0.29397 -36.45807 35976 ft 486 kts 209°
2026-05-05 20:31 0.23500 -36.49094 35972 ft 485 kts 209°
2026-05-05 20:32 0.17600 -36.52384 35972 ft 485 kts 209°
2026-05-05 20:32 0.11711 -36.55668 35972 ft 485 kts 209°
2026-05-05 20:33 0.05824 -36.58950 35972 ft 485 kts 209°
2026-05-05 20:33 -0.00025 -36.62210 35978 ft 484 kts 209°
2026-05-05 20:34 -0.05909 -36.65491 35974 ft 484 kts 209°
2026-05-05 20:34 -0.11773 -36.68761 35968 ft 483 kts 209°
2026-05-05 20:35 -0.17646 -36.72035 35970 ft 482 kts 209°
2026-05-05 20:35 -0.23506 -36.75302 35969 ft 482 kts 209°
2026-05-05 20:36 -0.29321 -36.78544 35970 ft 482 kts 209°
2026-05-05 20:36 -0.35177 -36.81809 35970 ft 482 kts 209°
2026-05-05 20:37 -0.41027 -36.85070 35971 ft 482 kts 209°
2026-05-05 20:37 -0.46887 -36.88338 35972 ft 482 kts 209°
2026-05-05 20:38 -0.52712 -36.91585 35971 ft 483 kts 209°
2026-05-05 20:38 -0.58574 -36.94854 35971 ft 483 kts 209°
2026-05-05 20:39 -0.64445 -36.98128 35971 ft 483 kts 209°
2026-05-05 20:39 -0.70315 -37.01401 35967 ft 483 kts 209°
2026-05-05 20:40 -0.76186 -37.04675 35974 ft 483 kts 209°
2026-05-05 20:40 -0.82016 -37.07926 35976 ft 483 kts 209°
2026-05-05 20:41 -0.87896 -37.11205 35972 ft 484 kts 210°
2026-05-05 20:41 -0.93769 -37.14480 35970 ft 483 kts 210°
2026-05-05 20:42 -0.99644 -37.17756 35970 ft 483 kts 210°
2026-05-05 20:42 -1.05508 -37.21027 35971 ft 483 kts 210°
2026-05-05 20:43 -1.11332 -37.24276 35966 ft 482 kts 210°
2026-05-05 20:43 -1.17191 -37.27544 35966 ft 482 kts 210°
2026-05-05 20:44 -1.23046 -37.30809 35971 ft 482 kts 209°
2026-05-05 20:44 -1.28908 -37.34079 35972 ft 482 kts 209°
2026-05-05 20:45 -1.37665 -37.38965 35970 ft 482 kts 210°
2026-05-05 20:45 -1.43520 -37.42231 35971 ft 482 kts 210°
2026-05-05 20:46 -1.49372 -37.45496 35966 ft 481 kts 209°
2026-05-05 20:46 -1.55219 -37.48758 35969 ft 481 kts 210°
2026-05-05 20:47 -1.61062 -37.52019 35971 ft 481 kts 210°
2026-05-05 20:47 -1.66876 -37.55263 35973 ft 482 kts 210°
2026-05-05 20:48 -1.72725 -37.58528 35971 ft 482 kts 210°
2026-05-05 20:48 -1.78583 -37.61797 35969 ft 482 kts 210°
2026-05-05 20:49 -1.84445 -37.65069 35975 ft 482 kts 210°
2026-05-05 20:49 -1.90310 -37.68343 35972 ft 483 kts 211°
2026-05-05 20:50 -1.96132 -37.71593 35971 ft 483 kts 211°
2026-05-05 20:50 -2.01997 -37.74868 35971 ft 483 kts 210°
2026-05-05 20:51 -2.07860 -37.78141 35973 ft 483 kts 211°
2026-05-05 20:51 -2.13743 -37.81426 35322 ft 489 kts 211°
2026-05-05 20:52 -2.16715 -37.83087 34600 ft 489 kts 211°
2026-05-05 20:52 -2.19690 -37.84748 33738 ft 491 kts 210°
2026-05-05 20:52 -2.22633 -37.86392 32792 ft 492 kts 210°
2026-05-05 20:52 -2.25623 -37.88061 31865 ft 492 kts 210°
2026-05-05 20:53 -2.28616 -37.89733 30902 ft 493 kts 210°
2026-05-05 20:53 -2.31611 -37.91405 30130 ft 491 kts 210°
2026-05-05 20:53 -2.34570 -37.93058 29368 ft 486 kts 210°
2026-05-05 20:53 -2.37505 -37.94698 28690 ft 480 kts 210°
2026-05-05 20:54 -2.40403 -37.96316 28021 ft 475 kts 210°
2026-05-05 20:54 -2.43272 -37.97919 27391 ft 470 kts 209°
2026-05-05 20:54 -2.46117 -37.99509 26779 ft 466 kts 209°
2026-05-05 20:54 -2.48934 -38.01083 26161 ft 462 kts 209°
2026-05-05 20:55 -2.51730 -38.02647 25570 ft 459 kts 208°
2026-05-05 20:55 -2.54479 -38.04183 24974 ft 458 kts 208°
2026-05-05 20:55 -2.57252 -38.05733 24373 ft 456 kts 208°
2026-05-05 20:55 -2.60021 -38.07281 23784 ft 456 kts 208°
2026-05-05 20:56 -2.62789 -38.08827 23109 ft 455 kts 207°
2026-05-05 20:56 -2.65549 -38.10368 22487 ft 453 kts 207°
2026-05-05 20:56 -2.68287 -38.11899 21883 ft 450 kts 207°
2026-05-05 20:56 -2.71008 -38.13420 21302 ft 446 kts 207°
2026-05-05 20:57 -2.73711 -38.14931 20728 ft 443 kts 207°
2026-05-05 20:57 -2.76354 -38.16409 20180 ft 440 kts 207°
2026-05-05 20:57 -2.79010 -38.17895 19611 ft 437 kts 207°
2026-05-05 20:57 -2.81658 -38.19375 19046 ft 434 kts 207°
2026-05-05 20:58 -2.84288 -38.20845 18486 ft 432 kts 207°
2026-05-05 20:58 -2.86909 -38.22310 17874 ft 430 kts 207°
2026-05-05 20:58 -2.89513 -38.23766 17271 ft 427 kts 207°
2026-05-05 20:58 -2.92096 -38.25210 16723 ft 424 kts 207°
2026-05-05 20:59 -2.94661 -38.26645 16156 ft 421 kts 207°
2026-05-05 20:59 -2.97214 -38.28072 15608 ft 418 kts 207°
2026-05-05 20:59 -2.99744 -38.29487 15077 ft 416 kts 207°
2026-05-05 20:59 -3.02232 -38.30879 14520 ft 414 kts 207°
2026-05-05 21:00 -3.04744 -38.32284 13963 ft 413 kts 207°
2026-05-05 21:00 -3.07248 -38.33684 13460 ft 410 kts 207°
2026-05-05 21:00 -3.09728 -38.35072 12912 ft 408 kts 207°
2026-05-05 21:00 -3.12190 -38.36450 12480 ft 403 kts 206°
2026-05-05 21:01 -3.14610 -38.37805 12077 ft 395 kts 206°
2026-05-05 21:01 -3.16987 -38.39135 11539 ft 387 kts 206°
2026-05-05 21:01 -3.19273 -38.40417 11019 ft 369 kts 206°
2026-05-05 21:01 -3.21477 -38.41652 10806 ft 358 kts 206°
2026-05-05 21:02 -3.23615 -38.42849 10645 ft 346 kts 206°
2026-05-05 21:02 -3.25650 -38.43989 10487 ft 335 kts 206°
2026-05-05 21:02 -3.27648 -38.45107 10344 ft 323 kts 206°
2026-05-05 21:02 -3.29573 -38.46184 10214 ft 311 kts 206°
2026-05-05 21:03 -3.31430 -38.47224 10083 ft 300 kts 206°
2026-05-05 21:03 -3.33216 -38.48224 9937 ft 289 kts 205°
2026-05-05 21:03 -3.34963 -38.49201 9611 ft 286 kts 205°
2026-05-05 21:03 -3.36681 -38.50161 9297 ft 281 kts 205°
2026-05-05 21:04 -3.38371 -38.51106 8985 ft 276 kts 205°
2026-05-05 21:04 -3.40034 -38.52037 8679 ft 271 kts 205°
2026-05-05 21:04 -3.41648 -38.52940 8370 ft 267 kts 205°
2026-05-05 21:04 -3.43282 -38.53854 8076 ft 265 kts 205°
2026-05-05 21:05 -3.44877 -38.54744 7788 ft 268 kts 205°
2026-05-05 21:05 -3.46526 -38.55665 7497 ft 274 kts 205°
2026-05-05 21:05 -3.48199 -38.56601 7178 ft 275 kts 205°
2026-05-05 21:05 -3.49860 -38.57531 6864 ft 272 kts 205°
2026-05-05 21:06 -3.51496 -38.58449 6569 ft 268 kts 205°
2026-05-05 21:06 -3.53115 -38.59356 6229 ft 265 kts 205°
2026-05-05 21:06 -3.54709 -38.60250 5922 ft 261 kts 205°
2026-05-05 21:06 -3.56278 -38.61129 5627 ft 256 kts 204°
2026-05-05 21:07 -3.57821 -38.61994 5343 ft 252 kts 205°
2026-05-05 21:07 -3.59344 -38.62846 5098 ft 249 kts 205°
2026-05-05 21:07 -3.60853 -38.63689 4847 ft 256 kts 205°
2026-05-05 21:07 -3.62432 -38.64572 4582 ft 263 kts 205°
2026-05-05 21:08 -3.64038 -38.65472 4265 ft 263 kts 206°
2026-05-05 21:08 -3.65625 -38.66362 3957 ft 260 kts 206°
2026-05-05 21:08 -3.67189 -38.67238 3669 ft 255 kts 207°
2026-05-05 21:08 -3.68693 -38.68082 3566 ft 242 kts 206°
2026-05-05 21:09 -3.70132 -38.68861 3411 ft 225 kts 199°
2026-05-05 21:09 -3.71604 -38.69039 3159 ft 206 kts 163°
2026-05-05 21:09 -3.72739 -38.68319 3085 ft 193 kts 127°
2026-05-05 21:09 -3.73471 -38.67178 3070 ft 197 kts 122°
2026-05-05 21:10 -3.74046 -38.65999 2925 ft 186 kts 114°
2026-05-05 21:10 -3.74498 -38.64832 2494 ft 177 kts 111°
2026-05-05 21:10 -3.74841 -38.63704 2061 ft 167 kts 108°
2026-05-05 21:10 -3.75148 -38.62571 1833 ft 168 kts 107°
2026-05-05 21:11 -3.75440 -38.61411 1511 ft 173 kts 105°
2026-05-05 21:11 -3.75726 -38.60291 1308 ft 165 kts 105°
2026-05-05 21:11 -3.76010 -38.59236 1019 ft 147 kts 107°
2026-05-05 21:11 -3.76272 -38.58317 772 ft 134 kts 106°
2026-05-05 21:12 -3.76510 -38.57439 616 ft 133 kts 105°
2026-05-05 21:12 -3.76753 -38.56517 450 ft 137 kts 103°
2026-05-05 21:12 -3.76993 -38.55641 330 ft 131 kts 103°
2026-05-05 21:12 -3.77225 -38.54750 183 ft 133 kts 104°
2026-05-05 21:13 -3.77470 -38.53855 95 ft 129 kts 104°
2026-05-05 21:13 -3.77663 -38.53135 83 ft 81 kts 105°
2026-05-05 21:13 -3.77761 -38.52766 83 ft 29 kts 105°
2026-05-05 21:13 -3.77794 -38.52659 82 ft 15 kts 117°
2026-05-05 21:14 -3.77852 -38.52639 84 ft 8 kts 221°
2026-05-05 21:14 -3.77885 -38.52685 85 ft 8 kts 240°
2026-05-05 21:14 -3.77911 -38.52736 82 ft 8 kts 244°
2026-05-05 21:14 -3.77914 -38.52792 83 ft 9 kts 286°
2026-05-05 21:15 -3.77897 -38.52851 85 ft 9 kts 284°
2026-05-05 21:15 -3.77879 -38.52919 86 ft 11 kts 284°
2026-05-05 21:15 -3.77859 -38.52992 83 ft 11 kts 285°
2026-05-05 21:15 -3.77839 -38.53065 87 ft 11 kts 285°
2026-05-05 21:16 -3.77819 -38.53138 84 ft 11 kts 285°
2026-05-05 21:16 -3.77799 -38.53210 87 ft 11 kts 285°
2026-05-05 21:16 -3.77779 -38.53283 88 ft 11 kts 285°
2026-05-05 21:16 -3.77772 -38.53349 88 ft 5 kts 235°
2026-05-05 21:17 -3.77807 -38.53370 90 ft 6 kts 198°
2026-05-05 21:17 -3.77832 -38.53377 87 ft 0 kts 195°